Hourly Weather Klaipeda

Today, 29 July, Thursday

Time Temperature Precipitation Wind Pressure Humidity
00:00 +19°C° 0.2 mm 3 mps 756 mmHg 91%
01:00 +19°C° 0 mm 3 mps 755 mmHg 94%
02:00 +18°C° 0.1 mm 3 mps 755 mmHg 94%
03:00 +18°C° 0.1 mm 3 mps 755 mmHg 94%
04:00 +18°C° 0.1 mm 3 mps 755 mmHg 94%
05:00 +20°C° 0 mm 3 mps 755 mmHg 87%
06:00 +21°C° 0 mm 3 mps 755 mmHg 80%
07:00 +22°C° 0 mm 4 mps 755 mmHg 72%
08:00 +23°C° 0.1 mm 5 mps 755 mmHg 66%
09:00 +25°C° 0.1 mm 5 mps 755 mmHg 60%
10:00 +26°C° 0.1 mm 6 mps 755 mmHg 54%
11:00 +26°C° 0.2 mm 7 mps 755 mmHg 53%
12:00 +26°C° 0.2 mm 7 mps 755 mmHg 52%
13:00 +26°C° 0.2 mm 7 mps 755 mmHg 52%
14:00 +26°C° 0 mm 7 mps 755 mmHg 51%
15:00 +24°C° 0 mm 6 mps 755 mmHg 50%
16:00 +24°C° 0 mm 6 mps 755 mmHg 50%
17:00 +23°C° 0.1 mm 6 mps 755 mmHg 57%
18:00 +21°C° 0.1 mm 7 mps 754 mmHg 64%
19:00 +20°C° 0.1 mm 7 mps 754 mmHg 71%
20:00 +20°C° 0.2 mm 8 mps 754 mmHg 72%
21:00 +18°C° 0.2 mm 8 mps 754 mmHg 73%
22:00 +18°C° 0.2 mm 8 mps 754 mmHg 74%
23:00 +18°C° 0.1 mm 8 mps 754 mmHg 72%

Tomorrow, 30 July, Friday

Time Temperature Precipitation Wind Pressure Humidity
00:00 +17°C° 0.1 mm 9 mps 754 mmHg 70%
01:00 +17°C° 0.1 mm 9 mps 754 mmHg 68%
02:00 +17°C° 0.3 mm 9 mps 754 mmHg 71%
03:00 +17°C° 0.3 mm 10 mps 753 mmHg 74%
04:00 +16°C° 0.3 mm 10 mps 753 mmHg 77%
05:00 +17°C° 0.4 mm 10 mps 753 mmHg 75%
06:00 +18°C° 0.4 mm 11 mps 753 mmHg 73%
07:00 +18°C° 0.4 mm 11 mps 753 mmHg 71%
08:00 +19°C° 0.1 mm 12 mps 753 mmHg 65%
09:00 +21°C° 0.1 mm 12 mps 753 mmHg 59%
10:00 +22°C° 0.1 mm 12 mps 753 mmHg 53%
11:00 +20°C° 0.2 mm 13 mps 752 mmHg 56%
12:00 +20°C° 0.2 mm 13 mps 752 mmHg 58%
13:00 +20°C° 0.2 mm 13 mps 752 mmHg 61%
14:00 +19°C° 0.4 mm 13 mps 752 mmHg 65%
15:00 +19°C° 0.4 mm 13 mps 751 mmHg 70%
16:00 +19°C° 0.4 mm 14 mps 751 mmHg 74%
17:00 +19°C° 0.2 mm 14 mps 751 mmHg 75%
18:00 +19°C° 0.2 mm 14 mps 751 mmHg 77%
19:00 +19°C° 0.2 mm 14 mps 751 mmHg 78%
20:00 +19°C° 0.1 mm 13 mps 751 mmHg 80%
21:00 +19°C° 0.1 mm 13 mps 751 mmHg 82%
22:00 +19°C° 0.1 mm 12 mps 751 mmHg 84%
23:00 +19°C° 0.2 mm 12 mps 751 mmHg 84%

Day after tomorrow, 31 July, Saturday

Time Temperature Precipitation Wind Pressure Humidity
00:00 +18°C° 0.2 mm 11 mps 751 mmHg 85%
01:00 +18°C° 0.2 mm 11 mps 751 mmHg 85%
02:00 +18°C° 0.1 mm 10 mps 751 mmHg 85%
03:00 +18°C° 0.1 mm 10 mps 751 mmHg 84%
04:00 +18°C° 0.1 mm 9 mps 751 mmHg 83%
05:00 +19°C° 0.1 mm 9 mps 752 mmHg 80%
06:00 +21°C° 0.1 mm 8 mps 752 mmHg 77%
07:00 +22°C° 0.1 mm 8 mps 752 mmHg 73%
08:00 +22°C° 0 mm 8 mps 752 mmHg 69%
09:00 +22°C° 0 mm 7 mps 753 mmHg 65%
10:00 +23°C° 0 mm 7 mps 753 mmHg 61%
11:00 +24°C° 0 mm 6 mps 753 mmHg 57%
12:00 +26°C° 0 mm 6 mps 753 mmHg 52%
13:00 +26°C° 0 mm 5 mps 753 mmHg 47%
14:00 +27°C° 0.1 mm 6 mps 752 mmHg 47%
15:00 +27°C° 0.1 mm 6 mps 752 mmHg 47%
16:00 +27°C° 0.1 mm 6 mps 751 mmHg 47%
17:00 +24°C° 0.4 mm 6 mps 751 mmHg 58%
18:00 +22°C° 0.4 mm 5 mps 751 mmHg 69%
19:00 +20°C° 0.4 mm 5 mps 751 mmHg 80%
20:00 +19°C° 0.3 mm 5 mps 751 mmHg 83%
21:00 +17°C° 0.3 mm 5 mps 751 mmHg 85%
22:00 +17°C° 0.3 mm 5 mps 751 mmHg 88%
23:00 +16°C° 0.1 mm 6 mps 751 mmHg 87%

1 August, Sunday

Time Temperature Precipitation Wind Pressure Humidity
00:00 +16°C° 0.1 mm 8 mps 751 mmHg 86%
01:00 +16°C° 0.1 mm 9 mps 751 mmHg 85%
02:00 +17°C° 0.3 mm 9 mps 751 mmHg 84%
03:00 +17°C° 0.3 mm 10 mps 751 mmHg 82%
04:00 +17°C° 0.3 mm 10 mps 751 mmHg 81%
05:00 +18°C° 0.3 mm 10 mps 751 mmHg 80%
06:00 +18°C° 0.3 mm 10 mps 751 mmHg 79%
07:00 +18°C° 0.3 mm 10 mps 752 mmHg 79%
08:00 +19°C° 0.1 mm 10 mps 752 mmHg 72%
09:00 +21°C° 0.1 mm 10 mps 753 mmHg 66%
10:00 +21°C° 0.1 mm 10 mps 753 mmHg 59%
11:00 +22°C° 0.1 mm 9 mps 753 mmHg 58%
12:00 +22°C° 0.1 mm 9 mps 753 mmHg 57%
13:00 +22°C° 0.1 mm 9 mps 753 mmHg 56%
14:00 +22°C° 0.1 mm 9 mps 754 mmHg 57%
15:00 +21°C° 0.1 mm 8 mps 754 mmHg 58%
16:00 +21°C° 0.1 mm 8 mps 754 mmHg 60%
17:00 +20°C° 0 mm 8 mps 754 mmHg 61%
18:00 +20°C° 0 mm 8 mps 754 mmHg 63%
19:00 +18°C° 0 mm 7 mps 754 mmHg 65%
20:00 +18°C° 0 mm 7 mps 754 mmHg 64%
21:00 +18°C° 0 mm 7 mps 754 mmHg 63%
22:00 +17°C° 0 mm 7 mps 754 mmHg 62%
23:00 +17°C° 0 mm 6 mps 754 mmHg 62%

2 August, Monday

Time Temperature Precipitation Wind Pressure Humidity
00:00 +17°C° 0 mm 6 mps 754 mmHg 62%
01:00 +17°C° 0 mm 6 mps 754 mmHg 62%
02:00 +16°C° 0 mm 6 mps 754 mmHg 63%
03:00 +16°C° 0 mm 5 mps 754 mmHg 64%
04:00 +16°C° 0 mm 5 mps 753 mmHg 65%
05:00 +17°C° 0 mm 5 mps 753 mmHg 62%
06:00 +19°C° 0 mm 5 mps 753 mmHg 60%
07:00 +20°C° 0 mm 5 mps 753 mmHg 57%
08:00 +20°C° 0.2 mm 5 mps 754 mmHg 59%
09:00 +20°C° 0.2 mm 5 mps 754 mmHg 61%
10:00 +21°C° 0.2 mm 4 mps 754 mmHg 63%
11:00 +21°C° 0.2 mm 4 mps 754 mmHg 62%
12:00 +21°C° 0.2 mm 4 mps 754 mmHg 62%
13:00 +21°C° 0.2 mm 4 mps 754 mmHg 61%
14:00 +21°C° 0.1 mm 5 mps 754 mmHg 61%
15:00 +20°C° 0.1 mm 6 mps 755 mmHg 61%
16:00 +20°C° 0.1 mm 6 mps 755 mmHg 61%
17:00 +19°C° 0 mm 6 mps 755 mmHg 62%
18:00 +17°C° 0 mm 6 mps 755 mmHg 63%
19:00 +17°C° 0 mm 5 mps 755 mmHg 63%
20:00 +16°C° 0 mm 5 mps 755 mmHg 69%
21:00 +15°C° 0 mm 4 mps 756 mmHg 74%
22:00 +14°C° 0 mm 4 mps 756 mmHg 79%
23:00 +14°C° 0 mm 3 mps 756 mmHg 79%

3 August, Tuesday

Time Temperature Precipitation Wind Pressure Humidity
00:00 +13°C° 0 mm 3 mps 756 mmHg 79%
01:00 +14°C° 0 mm 2 mps 757 mmHg 78%
02:00 +14°C° 0.1 mm 2 mps 757 mmHg 79%
03:00 +13°C° 0.1 mm 1 mps 757 mmHg 80%
04:00 +13°C° 0.1 mm 1 mps 757 mmHg 81%
05:00 +15°C° 0 mm 1 mps 757 mmHg 74%
06:00 +16°C° 0 mm 2 mps 757 mmHg 67%
07:00 +18°C° 0 mm 2 mps 757 mmHg 59%
08:00 +19°C° 0 mm 2 mps 757 mmHg 54%
09:00 +21°C° 0 mm 3 mps 757 mmHg 48%
10:00 +22°C° 0 mm 3 mps 757 mmHg 43%
11:00 +22°C° 0.1 mm 4 mps 757 mmHg 45%
12:00 +22°C° 0.1 mm 5 mps 757 mmHg 47%
13:00 +22°C° 0.1 mm 6 mps 757 mmHg 49%
14:00 +22°C° 0.3 mm 6 mps 757 mmHg 52%
15:00 +22°C° 0.3 mm 6 mps 757 mmHg 55%
16:00 +22°C° 0.3 mm 7 mps 757 mmHg 58%
17:00 +21°C° 0 mm 6 mps 758 mmHg 61%
18:00 +20°C° 0 mm 6 mps 758 mmHg 64%
19:00 +17°C° 0 mm 6 mps 758 mmHg 67%
20:00 +17°C° 0 mm 5 mps 758 mmHg 68%
21:00 +17°C° 0 mm 5 mps 758 mmHg 69%
22:00 +16°C° 0 mm 5 mps 758 mmHg 69%
23:00 +16°C° 0.1 mm 6 mps 759 mmHg 73%
Show more